| time (UTC) | temp F | wind direction | speed MPH | gust MPH | rain 1hr in | rain 24hr in | rain mn in | humidity % | barometer mb |
| 20260505072200 | 76 | 82 | 1.0 | 4.0 | 0.00 | 0.00 | 0.00 | 84 | 999.5 |
| 20260505071703 | 76 | 82 | 0.0 | 4.0 | 0.00 | 0.00 | 0.00 | 84 | 999.4 |
| 20260505071201 | 76 | 82 | 0.0 | 4.0 | 0.00 | 0.00 | 0.00 | 84 | 999.4 |
| 20260505070704 | 76 | 82 | 0.0 | 4.0 | 0.00 | 0.00 | 0.00 | 84 | 999.4 |
| 20260505070200 | 76 | 82 | 0.0 | 5.0 | 0.00 | 0.00 | 0.00 | 84 | 999.5 |
| 20260505065703 | 76 | 82 | 1.0 | 5.0 | 0.00 | 0.00 | 0.00 | 84 | 999.4 |
| 20260505065200 | 76 | 82 | 0.0 | 2.0 | 0.00 | 0.00 | 0.00 | 84 | 999.4 |
| 20260505064702 | 76 | 82 | 0.0 | 3.0 | 0.00 | 0.00 | 0.00 | 84 | 999.4 |
| 20260505064159 | 76 | 82 | 0.0 | 5.0 | 0.00 | 0.00 | 0.00 | 84 | 999.5 |
| 20260505063705 | 77 | 82 | 1.0 | 5.0 | 0.00 | 0.00 | 0.00 | 84 | 999.4 |
| 20260505063159 | 77 | 82 | 0.0 | 4.0 | 0.00 | 0.00 | 0.00 | 84 | 999.4 |
| 20260505062703 | 77 | 82 | 0.0 | 4.0 | 0.00 | 0.00 | 0.00 | 84 | 999.4 |
| 20260505062158 | 77 | 82 | 0.0 | 4.0 | 0.00 | 0.00 | 0.00 | 84 | 999.3 |
| 20260505061700 | 77 | 82 | 0.0 | 5.0 | 0.00 | 0.00 | 0.00 | 83 | 999.5 |
| 20260505060701 | 77 | 83 | 0.0 | 6.0 | 0.00 | 0.00 | 0.00 | 83 | 999.4 |
| 20260505060159 | 77 | 83 | 0.0 | 5.0 | 0.00 | 0.00 | 0.00 | 83 | 999.4 |
| 20260505054701 | 77 | 85 | 0.0 | 6.0 | 0.00 | 0.00 | 0.00 | 83 | 999.5 |
| 20260505054158 | 77 | 87 | 1.0 | 6.0 | 0.00 | 0.00 | 0.00 | 83 | 999.5 |
| 20260505053701 | 77 | 71 | 1.0 | 6.0 | 0.00 | 0.00 | 0.00 | 83 | 999.6 |
| 20260505053158 | 77 | 68 | 2.0 | 7.0 | 0.00 | 0.00 | 0.00 | 83 | 999.7 |
| 20260505052700 | 77 | 69 | 1.0 | 7.0 | 0.00 | 0.00 | 0.00 | 83 | 999.6 |
| 20260505051701 | 78 | 87 | 0.0 | 6.0 | 0.00 | 0.00 | 0.00 | 83 | 999.8 |
| 20260505051200 | 78 | 87 | 1.0 | 7.0 | 0.00 | 0.00 | 0.00 | 83 | 999.8 |
| 20260505050210 | 78 | 100 | 2.0 | 9.0 | 0.00 | 0.00 | 0.00 | 82 | 999.9 |
| 20260505041659 | 78 | 78 | 1.0 | 12.0 | 0.00 | 0.00 | 0.00 | 82 | 1000.1 |
| 20260505041156 | 78 | 87 | 3.0 | 11.0 | 0.00 | 0.00 | 0.00 | 82 | 1000.1 |
| 20260505040659 | 78 | 103 | 0.0 | 9.0 | 0.00 | 0.00 | 0.00 | 82 | 1000.3 |
| 20260505040155 | 78 | 66 | 0.0 | 12.0 | 0.00 | 0.00 | 0.00 | 82 | 1000.1 |
| 20260505035701 | 78 | 86 | 3.0 | 14.0 | 0.00 | 0.00 | 0.00 | 82 | 1000.2 |
| 20260505035156 | 79 | 94 | 5.0 | 14.0 | 0.00 | 0.00 | 0.00 | 81 | 1000.2 |
| 20260505034658 | 79 | 93 | 6.0 | 12.0 | 0.00 | 0.00 | 0.00 | 81 | 1000.2 |
| 20260505034156 | 79 | 87 | 4.0 | 12.0 | 0.00 | 0.00 | 0.00 | 81 | 1000.1 |
| 20260505033658 | 79 | 100 | 6.0 | 10.0 | 0.00 | 0.00 | 0.00 | 81 | 1000.2 |
| 20260505033154 | 79 | 103 | 2.0 | 10.0 | 0.00 | 0.00 | 0.00 | 81 | 1000.3 |
| 20260505032658 | 79 | 97 | 2.0 | 10.0 | 0.00 | 0.00 | 0.00 | 81 | 1000.3 |
| 20260505031658 | 79 | 94 | 4.0 | 12.0 | 0.00 | 0.00 | 0.00 | 81 | 1000.4 |
| 20260505031157 | 80 | 89 | 5.0 | 12.0 | 0.00 | 0.00 | 0.00 | 81 | 1000.5 |
| 20260505030700 | 80 | 96 | 5.0 | 12.0 | 0.00 | 0.00 | 0.00 | 80 | 1000.5 |
| 20260505030155 | 80 | 109 | 3.0 | 13.0 | 0.00 | 0.00 | 0.00 | 80 | 1000.5 |
| 20260505025658 | 80 | 104 | 5.0 | 13.0 | 0.00 | 0.00 | 0.00 | 80 | 1000.5 |
| 20260505025154 | 80 | 58 | 3.0 | 12.0 | 0.00 | 0.00 | 0.00 | 79 | 1000.5 |
| 20260505024154 | 80 | 102 | 5.0 | 12.0 | 0.00 | 0.00 | 0.00 | 79 | 1000.4 |
| 20260505023657 | 80 | 85 | 6.0 | 15.0 | 0.00 | 0.00 | 0.00 | 78 | 1000.4 |
| 20260505023153 | 81 | 117 | 9.0 | 15.0 | 0.00 | 0.00 | 0.00 | 78 | 1000.3 |
| 20260505022656 | 81 | 90 | 5.0 | 13.0 | 0.00 | 0.00 | 0.00 | 78 | 1000.3 |
| 20260505022153 | 81 | 93 | 5.0 | 12.0 | 0.00 | 0.00 | 0.00 | 77 | 1000.2 |
| 20260505021705 | 81 | 86 | 6.0 | 12.0 | 0.00 | 0.00 | 0.00 | 77 | 1000.2 |
| 20260505021153 | 81 | 79 | 6.0 | 11.0 | 0.00 | 0.00 | 0.00 | 77 | 1000.2 |
| 20260505020701 | 81 | 93 | 6.0 | 12.0 | 0.00 | 0.00 | 0.00 | 76 | 1000.2 |
| 20260505015704 | 82 | 93 | 5.0 | 13.0 | 0.00 | 0.00 | 0.00 | 75 | 1000.1 |
| 20260505015153 | 82 | 96 | 3.0 | 11.0 | 0.00 | 0.00 | 0.00 | 75 | 1000.2 |
| 20260505013701 | 82 | 93 | 3.0 | 10.0 | 0.00 | 0.00 | 0.00 | 74 | 1000.0 |
| 20260505013152 | 82 | 76 | 5.0 | 10.0 | 0.00 | 0.00 | 0.00 | 74 | 999.9 |
| 20260505012656 | 82 | 79 | 4.0 | 10.0 | 0.00 | 0.00 | 0.00 | 73 | 999.8 |
| 20260505012152 | 83 | 69 | 4.0 | 10.0 | 0.00 | 0.00 | 0.00 | 73 | 999.8 |
| 20260505011657 | 83 | 82 | 3.0 | 12.0 | 0.00 | 0.00 | 0.00 | 73 | 999.7 |
| 20260505011152 | 83 | 73 | 4.0 | 12.0 | 0.00 | 0.00 | 0.00 | 72 | 999.6 |
| 20260505010655 | 83 | 76 | 2.0 | 10.0 | 0.00 | 0.00 | 0.00 | 72 | 999.5 |
| 20260505010152 | 83 | 93 | 4.0 | 10.0 | 0.00 | 0.00 | 0.00 | 71 | 999.4 |
| 20260505005700 | 83 | 71 | 0.0 | 5.0 | 0.00 | 0.00 | 0.00 | 71 | 999.5 |
| 20260505005152 | 83 | 69 | 2.0 | 5.0 | 0.00 | 0.00 | 0.00 | 71 | 999.3 |
| 20260505004700 | 84 | 69 | 2.0 | 5.0 | 0.00 | 0.00 | 0.00 | 71 | 999.2 |
| 20260505004151 | 84 | 69 | 1.0 | 7.0 | 0.00 | 0.00 | 0.00 | 70 | 999.2 |
| 20260505003658 | 84 | 68 | 3.0 | 9.0 | 0.00 | 0.00 | 0.00 | 70 | 999.1 |
| 20260505003152 | 84 | 89 | 4.0 | 9.0 | 0.00 | 0.00 | 0.00 | 70 | 999.1 |
| 20260505002700 | 84 | 86 | 3.0 | 10.0 | 0.00 | 0.00 | 0.00 | 70 | 999.1 |
| 20260505002151 | 84 | 83 | 6.0 | 10.0 | 0.00 | 0.00 | 0.00 | 69 | 999.1 |
| 20260505001658 | 84 | 82 | 2.0 | 11.0 | 0.00 | 0.00 | 0.00 | 69 | 998.9 |
| 20260505001151 | 85 | 79 | 4.0 | 11.0 | 0.00 | 0.00 | 0.00 | 68 | 998.9 |
| 20260505000700 | 85 | 58 | 3.0 | 9.0 | 0.00 | 0.00 | 0.00 | 68 | 998.8 |
| 20260505000150 | 85 | 85 | 4.0 | 9.0 | 0.00 | 0.00 | 0.00 | 68 | 998.7 |
| 20260504235657 | 85 | 82 | 2.0 | 7.0 | 0.00 | 0.00 | 0.00 | 67 | 998.7 |
| 20260504235150 | 85 | 83 | 0.0 | 5.0 | 0.00 | 0.00 | 0.00 | 67 | 998.6 |
| 20260504234655 | 85 | 82 | 2.0 | 5.0 | 0.00 | 0.00 | 0.00 | 67 | 998.5 |
| 20260504234149 | 85 | 83 | 0.0 | 9.0 | 0.00 | 0.00 | 0.00 | 66 | 998.5 |
| 20260504233652 | 86 | 80 | 3.0 | 9.0 | 0.00 | 0.00 | 0.00 | 66 | 998.4 |
| 20260504233151 | 86 | 92 | 2.0 | 9.0 | 0.00 | 0.00 | 0.00 | 66 | 998.4 |
| 20260504231652 | 86 | 72 | 4.0 | 7.0 | 0.00 | 0.00 | 0.00 | 65 | 998.2 |
| 20260504231149 | 86 | 72 | 0.0 | 6.0 | 0.00 | 0.00 | 0.00 | 64 | 998.2 |
| 20260504230654 | 87 | 76 | 2.0 | 9.0 | 0.00 | 0.00 | 0.00 | 64 | 998.2 |
| 20260504230150 | 87 | 80 | 4.0 | 9.0 | 0.00 | 0.00 | 0.00 | 64 | 998.1 |
| 20260504225651 | 87 | 92 | 2.0 | 9.0 | 0.00 | 0.00 | 0.00 | 63 | 998.1 |
| 20260504225149 | 87 | 78 | 3.0 | 9.0 | 0.00 | 0.00 | 0.00 | 63 | 998.1 |
| 20260504224651 | 87 | 85 | 4.0 | 12.0 | 0.00 | 0.00 | 0.00 | 62 | 998.0 |
| 20260504224149 | 87 | 96 | 3.0 | 12.0 | 0.00 | 0.00 | 0.00 | 62 | 998.0 |
| 20260504223653 | 87 | 103 | 6.0 | 11.0 | 0.00 | 0.00 | 0.00 | 61 | 997.9 |
| 20260504223202 | 88 | 90 | 4.0 | 11.0 | 0.00 | 0.00 | 0.00 | 60 | 997.9 |
| 20260504222652 | 88 | 78 | 3.0 | 10.0 | 0.00 | 0.00 | 0.00 | 60 | 997.7 |
| 20260504222148 | 88 | 90 | 4.0 | 9.0 | 0.00 | 0.00 | 0.00 | 59 | 997.7 |
| 20260504221651 | 88 | 75 | 3.0 | 10.0 | 0.00 | 0.00 | 0.00 | 59 | 997.6 |
| 20260504221148 | 89 | 99 | 3.0 | 15.0 | 0.00 | 0.00 | 0.00 | 59 | 997.6 |
| 20260504220649 | 89 | 71 | 5.0 | 15.0 | 0.00 | 0.00 | 0.00 | 58 | 997.5 |
| 20260504215652 | 89 | 65 | 3.0 | 11.0 | 0.00 | 0.00 | 0.00 | 58 | 997.4 |
| 20260504215148 | 90 | 83 | 6.0 | 11.0 | 0.00 | 0.00 | 0.00 | 57 | 997.3 |
| 20260504214650 | 90 | 75 | 3.0 | 11.0 | 0.00 | 0.00 | 0.00 | 57 | 997.2 |
| 20260504214147 | 90 | 62 | 2.0 | 14.0 | 0.00 | 0.00 | 0.00 | 57 | 997.1 |
| 20260504213648 | 90 | 56 | 6.0 | 14.0 | 0.00 | 0.00 | 0.00 | 56 | 997.1 |
| 20260504213146 | 91 | 45 | 7.0 | 14.0 | 0.00 | 0.00 | 0.00 | 56 | 996.9 |
| 20260504212650 | 91 | 41 | 7.0 | 12.0 | 0.00 | 0.00 | 0.00 | 56 | 996.9 |
| 20260504212146 | 91 | 54 | 3.0 | 13.0 | 0.00 | 0.00 | 0.00 | 56 | 996.8 |
| 20260504211650 | 91 | 48 | 7.0 | 13.0 | 0.00 | 0.00 | 0.00 | 54 | 996.8 |
| 20260504211147 | 92 | 96 | 4.0 | 11.0 | 0.00 | 0.00 | 0.00 | 51 | 996.9 |
| 20260504210651 | 91 | 79 | 5.0 | 11.0 | 0.00 | 0.00 | 0.00 | 49 | 996.9 |
| 20260504210147 | 92 | 99 | 3.0 | 11.0 | 0.00 | 0.00 | 0.00 | 50 | 996.8 |
| 20260504205648 | 92 | 103 | 4.0 | 11.0 | 0.00 | 0.00 | 0.00 | 49 | 996.8 |
| 20260504205147 | 92 | 102 | 4.0 | 13.0 | 0.00 | 0.00 | 0.00 | 49 | 996.8 |
| 20260504204648 | 92 | 66 | 2.0 | 13.0 | 0.00 | 0.00 | 0.00 | 48 | 996.7 |
| 20260504204146 | 92 | 85 | 5.0 | 13.0 | 0.00 | 0.00 | 0.00 | 47 | 996.7 |
| 20260504203649 | 92 | 116 | 5.0 | 13.0 | 0.00 | 0.00 | 0.00 | 47 | 996.6 |
| 20260504203146 | 93 | 68 | 5.0 | 13.0 | 0.00 | 0.00 | 0.00 | 49 | 996.7 |
| 20260504202649 | 93 | 83 | 5.0 | 13.0 | 0.00 | 0.00 | 0.00 | 49 | 996.6 |
| 20260504202145 | 93 | 54 | 6.0 | 13.0 | 0.00 | 0.00 | 0.00 | 49 | 996.7 |
| 20260504201650 | 93 | 68 | 3.0 | 13.0 | 0.00 | 0.00 | 0.00 | 49 | 996.8 |
| 20260504201147 | 93 | 66 | 8.0 | 17.0 | 0.00 | 0.00 | 0.00 | 50 | 996.7 |
| 20260504200649 | 93 | 56 | 5.0 | 17.0 | 0.00 | 0.00 | 0.00 | 53 | 996.8 |
| 20260504200158 | 93 | 41 | 7.0 | 15.0 | 0.00 | 0.00 | 0.00 | 53 | 996.9 |
| 20260504195649 | 93 | 38 | 8.0 | 13.0 | 0.00 | 0.00 | 0.00 | 55 | 996.9 |
| 20260504195145 | 93 | 51 | 5.0 | 16.0 | 0.00 | 0.00 | 0.00 | 56 | 996.9 |
| 20260504194648 | 92 | 39 | 9.0 | 16.0 | 0.00 | 0.00 | 0.00 | 56 | 996.9 |
| 20260504194146 | 93 | 3 | 6.0 | 16.0 | 0.00 | 0.00 | 0.00 | 57 | 997.0 |
| 20260504193649 | 93 | 51 | 9.0 | 16.0 | 0.00 | 0.00 | 0.00 | 57 | 997.1 |
| 20260504193145 | 93 | 69 | 6.0 | 16.0 | 0.00 | 0.00 | 0.00 | 55 | 997.1 |
| 20260504192648 | 92 | 52 | 4.0 | 16.0 | 0.00 | 0.00 | 0.00 | 58 | 997.1 |
| 20260504192144 | 92 | 47 | 4.0 | 15.0 | 0.00 | 0.00 | 0.00 | 58 | 997.3 |
| 20260504191648 | 92 | 58 | 8.0 | 18.0 | 0.00 | 0.00 | 0.00 | 59 | 997.2 |
| 20260504191144 | 91 | 44 | 7.0 | 18.0 | 0.00 | 0.00 | 0.00 | 59 | 997.3 |
| 20260504190647 | 92 | 18 | 8.0 | 17.0 | 0.00 | 0.00 | 0.00 | 59 | 997.4 |
| 20260504190144 | 92 | 51 | 5.0 | 20.0 | 0.00 | 0.00 | 0.00 | 59 | 997.6 |
| 20260504185648 | 92 | 54 | 10.0 | 20.0 | 0.00 | 0.00 | 0.00 | 58 | 997.6 |
| 20260504185144 | 92 | 56 | 7.0 | 18.0 | 0.00 | 0.00 | 0.00 | 58 | 997.6 |
| 20260504184647 | 92 | 78 | 11.0 | 18.0 | 0.00 | 0.00 | 0.00 | 58 | 997.8 |
| 20260504184143 | 92 | 0 | 5.0 | 16.0 | 0.00 | 0.00 | 0.00 | 59 | 997.8 |
| 20260504183647 | 92 | 32 | 8.0 | 14.0 | 0.00 | 0.00 | 0.00 | 58 | 998.0 |
| 20260504183144 | 91 | 37 | 3.0 | 10.0 | 0.00 | 0.00 | 0.00 | 59 | 997.9 |
| 20260504182646 | 91 | 47 | 4.0 | 14.0 | 0.00 | 0.00 | 0.00 | 59 | 998.1 |
| 20260504182143 | 91 | 90 | 5.0 | 14.0 | 0.00 | 0.00 | 0.00 | 59 | 998.2 |
| 20260504181143 | 92 | 23 | 6.0 | 16.0 | 0.00 | 0.00 | 0.00 | 57 | 998.2 |
| 20260504180646 | 91 | 48 | 5.0 | 16.0 | 0.00 | 0.00 | 0.00 | 58 | 998.1 |
| 20260504180142 | 91 | 51 | 9.0 | 16.0 | 0.00 | 0.00 | 0.00 | 57 | 998.2 |
| 20260504175646 | 92 | 23 | 6.0 | 14.0 | 0.00 | 0.00 | 0.00 | 58 | 998.4 |
| 20260504175144 | 91 | 55 | 7.0 | 14.0 | 0.00 | 0.00 | 0.00 | 60 | 998.4 |
| 20260504174646 | 90 | 18 | 6.0 | 13.0 | 0.00 | 0.00 | 0.00 | 61 | 998.5 |
| 20260504174143 | 90 | 30 | 6.0 | 12.0 | 0.00 | 0.00 | 0.00 | 61 | 998.9 |
| 20260504173645 | 90 | 48 | 3.0 | 12.0 | 0.00 | 0.00 | 0.00 | 62 | 998.9 |
| 20260504173142 | 91 | 3 | 6.0 | 12.0 | 0.00 | 0.00 | 0.00 | 61 | 999.0 |
| 20260504172142 | 91 | 69 | 4.0 | 17.0 | 0.00 | 0.00 | 0.00 | 61 | 999.1 |
| 20260504171645 | 91 | 42 | 10.0 | 17.0 | 0.00 | 0.00 | 0.00 | 62 | 999.2 |
| 20260504171142 | 90 | 1 | 7.0 | 13.0 | 0.00 | 0.00 | 0.00 | 62 | 999.2 |
| 20260504170645 | 90 | 11 | 3.0 | 11.0 | 0.00 | 0.00 | 0.00 | 63 | 999.4 |
| 20260504170141 | 89 | 25 | 6.0 | 11.0 | 0.00 | 0.00 | 0.00 | 64 | 999.6 |
| 20260504160143 | 86 | 28 | 4.0 | 9.0 | 0.00 | 0.00 | 0.00 | 73 | 1000.9 |
| 20260504150645 | 83 | 37 | 1.0 | 7.0 | 0.00 | 0.00 | 0.00 | 75 | 1001.6 |
| 20260504150141 | 84 | 34 | 4.0 | 11.0 | 0.00 | 0.00 | 0.00 | 75 | 1001.6 |
| 20260504141144 | 82 | 89 | 5.0 | 11.0 | 0.00 | 0.00 | 0.00 | 76 | 1001.9 |
| 20260504140641 | 81 | 87 | 5.0 | 11.0 | 0.00 | 0.00 | 0.00 | 76 | 1002.0 |
| 20260504140137 | 81 | 102 | 2.0 | 14.0 | 0.00 | 0.00 | 0.00 | 78 | 1001.9 |
| 20260504130639 | 82 | 131 | 7.0 | 14.0 | 0.00 | 0.00 | 0.00 | 77 | 1001.6 |
| 20260504130137 | 82 | 80 | 5.0 | 14.0 | 0.00 | 0.00 | 0.00 | 77 | 1001.6 |
| 20260504120135 | 81 | 86 | 4.0 | 13.0 | 0.00 | 0.00 | 0.00 | 79 | 1001.2 |
| 20260504110637 | 78 | 71 | 1.0 | 6.0 | 0.00 | 0.00 | 0.00 | 81 | 1000.7 |
| 20260504081633 | 76 | 72 | 1.0 | 5.0 | 0.00 | 0.00 | 0.00 | 84 | 998.8 |
| 20260504081130 | 76 | 72 | 0.0 | 1.0 | 0.00 | 0.00 | 0.00 | 84 | 998.9 |
| 20260504080633 | 76 | 72 | 0.0 | 1.0 | 0.00 | 0.00 | 0.00 | 84 | 998.8 |
| 20260504080135 | 76 | 72 | 0.0 | 0.0 | 0.00 | 0.00 | 0.00 | 84 | 998.9 |